Regional Weather Roundup
Issued by NWS

Home | Current Version | Previous Version | Text Only | Print | Product List | Glossary Off
Versions: 1 2 3 4 5 6 7 8 9 10 11 12 13 14 15 16 17 18 19 20 21 22 23 24 25 26 27 28 29 30 31 32 33 34 35 36 37 38 39 40 41 42 43 44 45 46 47 48 49 50

668
ASUS45 KPSR 291010
RWRAZ

ARIZONA HOURLY REGIONAL WEATHER ROUNDUP
NATIONAL WEATHER SERVICE PHOENIX AZ
300 AM MST SAT APR 29 2017

NOTE: FAIR INDICATES FEW OR NO CLOUDS BELOW 12,000 FEET WITH NO
SIGNIFICANT WEATHER AND/OR OBSTRUCTIONS TO VISIBILITY.

AZZ001>003-036-291100-
NORTHWEST ARIZONA

CITY           SKY/WX    TMP DP  RH WIND       PRES   REMARKS
BULLHEAD CITY  CLEAR     64  23  20 N12       29.93S
KINGMAN        CLEAR     46  32  58 N12       29.97R
$$

AZZ004>008-015-016-018-291100-
NORTH CENTRAL ARIZONA

CITY           SKY/WX    TMP DP  RH WIND       PRES   REMARKS
GRAND CANYON   CLEAR     30  16  56 NW3       29.94R
WILLIAMS       CLEAR     27  14  59 NE7       29.93S WCI  19
PRESCOTT       CLEAR     37  16  42 W6        29.94R WCI  32
FLAGSTAFF      PTCLDY    25  11  55 CALM      29.91R
PAYSON         CLEAR     43  14  31 NE13      29.90R
PAGE           CLOUDY    47  23  38 W7        29.91R
$$

AZZ009>014-017-291100-
NORTHEAST ARIZONA

CITY           SKY/WX    TMP DP  RH WIND       PRES   REMARKS
WINSLOW        CLEAR     32  13  45 NW8       29.90R WCI  25
SAINT JOHNS    PTCLDY    32  30  92 E3        29.85R
WINDOW ROCK    CLEAR     22  14  71 CALM      29.85R
SHOW LOW       PTCLDY    28   9  43 NW9       29.88R WCI  20
$$

AZZ540-542>544-546-548-291100-
GREATER PHOENIX AREA

CITY           SKY/WX    TMP DP  RH WIND       PRES   REMARKS
PHOENIX        CLEAR     63  14  15 NW14      29.81R
BUCKEYE        CLEAR     55  10  16 N9        29.85R
LUKE AFB       CLEAR     56  19  23 N8        29.83R
DEER VALLEY    CLEAR     59  14  17 N15       29.82R
SCOTTSDALE     CLEAR     58  16  19 CALM      29.83R
MESA-GATEWAY   CLEAR     55  16  21 NW8       29.82R
$$

AZZ539-553-291100-
SOUTHWEST MARICOPA COUNTY AND PINAL COUNTY

CITY           SKY/WX    TMP DP  RH WIND       PRES   REMARKS
CASA GRANDE    CLEAR     60  14  16 NW15      29.82R
GILA BEND      FAIR      63  10  12 N12       29.82R
$$

AZZ503-504-507>509-291100-
SOUTHEAST ARIZONA

CITY           SKY/WX    TMP DP  RH WIND       PRES   REMARKS
TUCSON         MOCLDY    60   9  13 W8        29.83S
DAVIS-MONTHAN  MOCLDY    60  10  14 NW8       29.82R
NOGALES        CLOUDY    55   2  11 W3        29.84S
SIERRA VISTA   PTCLDY    51   0  12 W14       29.85S
DOUGLAS        MOCLDY    54   2  12 W18       29.79F
SAFFORD        PTCLDY    51  18  27 W13       29.78R
$$

AZZ532-291100-
SOUTHWEST ARIZONA

CITY           SKY/WX    TMP DP  RH WIND       PRES   REMARKS
YUMA           CLEAR     68  16  13 N12       29.86R
$$

CAZ041-043-047-048-061-525>527-560>570-291100-
SOUTHERN CALIFORNIA

CITY           SKY/WX    TMP DP  RH WIND       PRES   REMARKS
DOWNTOWN L.A.  CLEAR     72  14  11 CALM      29.89R
L.A. AIRPORT   CLEAR     69  13  11 NE7       29.89R
SAN DIEGO      PTCLDY    61  54  77 CALM      29.86S
BURBANK        CLEAR     69  10  10 NE16G30   29.91S
ONTARIO        PTCLDY    66  10  11 NE6G20    29.95R
RIVERSIDE      CLEAR     67  14  13 NE14G24   29.95R
PALM SPRINGS   CLEAR     71  10   9 NW16G22   29.99R
EL CENTRO NAS  CLEAR     60  20  21 NE10      29.92R
IMPERIAL       CLEAR     68  21  16 N10       29.89R
BLYTHE         CLEAR     66  16  14 NW13      29.91R
NEEDLES        CLEAR     64  18  17 N10       29.94R
$$

NVZ020-UTZ003-291100-
SOUTHERN NEVADA-UTAH

CITY           SKY/WX    TMP DP  RH WIND       PRES   REMARKS
LAS VEGAS      CLEAR     58  17  20 NW14G24   30.00S
SALT LAKE CITY MOCLDY    42  24  49 NE10      30.07R
$$

NMZ009-TXZ055-291100-
NEW MEXICO-WEST TEXAS

CITY           SKY/WX    TMP DP  RH WIND       PRES   REMARKS
ALBUQUERQUE    CLOUDY    37  33  85 S5        29.84R WCI  33
EL PASO        CLOUDY    47  41  80 N17       29.78R
$$


........................KEY........................
SKY/WX - SKY CONDITION/WEATHER
TMP    - TEMPERATURE IN FAHRENHEIT
DP     - DEW POINT IN FAHRENHEIT
RH     - RELATIVE HUMIDITY IN PERCENT
WIND   - DIRECTION AND SPEED IN MILES PER HOUR (MPH)
VRB    - VARIABLE WIND DIRECTION
PRES   - MEAN SEA LEVEL PRESSURE IN INCHES OF MERCURY
         F - FALLING PRESSURE   R - RISING PRESSURE
         S - STEADY PRESSURE
VSB    - VISIBILITY IN MILES
HX     - HEAT INDEX IN FAHRENHEIT
WCI    - WIND CHILL INDEX IN FAHRENHEIT
TC     - TEMPERATURE IN CELSIUS WHICH IS ALSO KNOWN AS
         TEMPERATURE IN CENTIGRADE
AFB    - AIR FORCE BASE
         LUKE AFB IS LUKE AIR FORCE BASE
         DAVIS-MONTHAN IS DAVIS-MONTHAN AIR FORCE BASE
NAS    - NAVAL AIR STATION
         EL CENTRO NAS IS EL CENTRO NAVAL AIR STATION
N/A    - NOT AVAILABLE





USA.gov is the U.S. government's official web portal to all federal, state and local government web resources and services.